{"data":{"norad_id":63835,"intl_designator":"2025-052BR","name":"HERMES-3","alt_names":[],"object_type":"PAYLOAD","status":"ACTIVE","operator":null,"country":"IT","launch_date":"2025-03-15","launch_site_code":"AFWTR","launch_vehicle":null,"mission":null,"orbit_class":"UNKNOWN","rcs_meters":null,"size_class":null,"mass_kg":null,"dimensions":null,"purposes":[],"wikipedia_slug":null,"has_3d_model":false,"image_url":null,"decayed_at":null,"tle_current":{"epoch":"2026-05-24T23:37:58.859328Z","epoch_age_seconds":76391,"freshness":"FRESH","line1":"1 63835U 25052BR  26144.98470902  .00019651  00000+0  61784-3 0  9995","line2":"2 63835  97.3894  40.4681 0005171 185.8648 174.2534 15.32998344 66505","mean_motion":15.32998344,"eccentricity":0.0005171,"inclination_deg":97.3894,"raan_deg":40.4681,"arg_perigee_deg":185.8648,"mean_anomaly_deg":174.2534,"bstar":0.00061784,"rev_number":6650,"period_min":93.933565266787,"perigee_km":463.33287676395,"apogee_km":470.41198551763,"semimajor_km":6845.0094311408,"source":"CELESTRAK","updated_at":"2026-05-25T13:38:04.015698Z"}}}